Weather History for Rickenbacker, OH

Change the Weather History Date:

Monday, January 21, 2013

  Actual Average Record
Temperature  
Mean Temperature 20 °F -  
Max Temperature 27 °F 33 °F 55 °F (2006)
Min Temperature 13 °F 19 °F -4 °F (2000)
Degree Days  
Heating Degree Days 45    
Moisture  
Dew Point 9 °F    
Average Humidity 55    
Maximum Humidity 68    
Minimum Humidity 49    
Precipitation  
Precipitation 0.00 in - - ()
Sea Level Pressure  
Sea Level Pressure 30.09 in    
Wind  
Wind Speed 10 mph (West)    
Max Wind Speed 23 mph    
Max Gust Speed 32 mph    
Visibility 9 miles    
Events Snow    
Averages and records for this station are not official NWS values.
T = Trace of Precipitation, MM = Missing Value Source: NWS Daily Summary

Daily Weather History Graph

Daily Weather History Graph

Search for Another Location

Airport:

Trip Planner

Search our weather history database for the weather conditions in past years. The results will help you decide how hot, cold, wet, or windy it might be!

Date:

Astronomy

Jan. 21, 2013 Rise Set
Actual Time 7:48 AM EST 5:38 PM EST
Civil Twilight 7:18 AM EST 6:07 PM EST
Nautical Twilight 6:45 AM EST 6:40 PM EST
Astronomical Twilight 6:13 AM EST 7:12 PM EST
Moon 1:17 PM EST (1/21) 3:15 AM EST (1/21)
Length of Visible Light 10h 48m
Length of Day
9h 50m
Waxing Gibbous, 75% of the Moon is Illuminated
Jan 21
Waxing Gibbous
Jan 26
Full
Feb 3
Last Quarter
Feb 10
New
Feb 17
First Quarter

Hourly Weather History & Observations

Time (EST) Temp. Windchill Dew Point Humidity Pressure Visibility Wind Dir Wind Speed Gust Speed Precip Events Conditions
12:15 AM 26.4 °F 18.0 °F 11.5 °F 53% 30.15 in 10.0 mi NW 8.1 mph - N/A   Overcast
12:35 AM 26.4 °F 20.9 °F 11.3 °F 53% 30.14 in 10.0 mi WNW 4.6 mph - N/A   Overcast
12:55 AM 26.2 °F 19.6 °F 11.5 °F 54% 30.14 in 10.0 mi West 5.8 mph - N/A   Overcast
1:15 AM 26.2 °F 20.7 °F 12.0 °F 55% 30.13 in 10.0 mi West 4.6 mph - N/A   Overcast
1:35 AM 26.2 °F 19.6 °F 11.8 °F 55% 30.12 in 10.0 mi WNW 5.8 mph - N/A   Overcast
1:55 AM 26.2 °F 20.7 °F 11.8 °F 55% 30.12 in 10.0 mi West 4.6 mph - N/A   Overcast
2:15 AM 26.2 °F 19.6 °F 12.0 °F 55% 30.11 in 10.0 mi WNW 5.8 mph - N/A   Overcast
2:35 AM 26.1 °F 19.4 °F 12.0 °F 55% 30.11 in 10.0 mi West 5.8 mph - N/A   Overcast
2:55 AM 26.1 °F 20.5 °F 12.0 °F 55% 30.11 in 10.0 mi West 4.6 mph - N/A   Overcast
3:15 AM 26.1 °F 20.5 °F 12.2 °F 56% 30.11 in 10.0 mi West 4.6 mph - N/A   Overcast
3:35 AM 25.9 °F 19.2 °F 12.6 °F 57% 30.10 in 10.0 mi West 5.8 mph - N/A   Overcast
3:55 AM 25.9 °F 19.2 °F 12.6 °F 57% 30.09 in 10.0 mi West 5.8 mph - N/A   Overcast
4:15 AM 25.7 °F 19.0 °F 12.9 °F 58% 30.09 in 10.0 mi West 5.8 mph - N/A   Overcast
4:35 AM 25.7 °F 19.0 °F 12.6 °F 58% 30.08 in 10.0 mi West 5.8 mph - N/A   Overcast
4:55 AM 25.7 °F 19.0 °F 12.4 °F 57% 30.08 in 10.0 mi West 5.8 mph - N/A   Overcast
5:15 AM 25.7 °F 20.1 °F 11.7 °F 55% 30.08 in 10.0 mi West 4.6 mph - N/A   Overcast
5:35 AM 25.7 °F 19.0 °F 12.0 °F 56% 30.08 in 10.0 mi WSW 5.8 mph - N/A   Overcast
5:55 AM 25.7 °F 18.0 °F 12.7 °F 58% 30.08 in 10.0 mi WSW 6.9 mph - N/A   Overcast
6:15 AM 25.7 °F 18.0 °F 12.4 °F 57% 30.07 in 10.0 mi WSW 6.9 mph - N/A   Overcast
6:35 AM 25.7 °F 17.1 °F 12.9 °F 58% 30.07 in 10.0 mi WSW 8.1 mph - N/A   Overcast
6:55 AM 25.5 °F 18.7 °F 13.6 °F 61% 30.07 in 10.0 mi WSW 5.8 mph - N/A   Overcast
7:15 AM 25.7 °F 19.0 °F 14.2 °F 62% 30.06 in 10.0 mi WSW 5.8 mph - N/A   Overcast
7:35 AM 25.7 °F 19.0 °F 14.0 °F 61% 30.05 in 10.0 mi SW 5.8 mph - N/A   Overcast
7:55 AM 25.7 °F 18.0 °F 14.4 °F 62% 30.05 in 10.0 mi SW 6.9 mph - N/A   Overcast
8:15 AM 25.9 °F 16.0 °F 14.7 °F 63% 30.05 in 10.0 mi WSW 10.4 mph - N/A   Overcast
8:35 AM 26.2 °F 16.4 °F 14.5 °F 61% 30.05 in 10.0 mi WSW 10.4 mph - N/A   Overcast
8:55 AM 26.2 °F 14.2 °F 13.8 °F 59% 30.05 in 10.0 mi West 15.0 mph - N/A   Overcast
9:15 AM 26.4 °F 14.0 °F 12.6 °F 56% 30.05 in 10.0 mi West 16.1 mph 23.0 mph N/A   Overcast
9:35 AM 26.4 °F 14.0 °F 12.0 °F 55% 30.06 in 10.0 mi West 16.1 mph 19.6 mph N/A   Overcast
9:55 AM 26.1 °F 14.0 °F 12.6 °F 57% 30.05 in 10.0 mi West 15.0 mph - N/A   Overcast
10:15 AM 26.6 °F 14.3 °F 13.1 °F 57% 30.05 in 10.0 mi West 16.1 mph 21.9 mph N/A   Overcast
10:35 AM 26.6 °F 13.1 °F 12.6 °F 55% 30.06 in 10.0 mi West 19.6 mph 24.2 mph N/A   Overcast
10:55 AM 26.2 °F 13.0 °F 10.6 °F 52% 30.06 in 10.0 mi West 18.4 mph 26.5 mph N/A   Overcast
11:15 AM 26.2 °F 12.6 °F 10.0 °F 50% 30.05 in 10.0 mi West 19.6 mph 27.6 mph N/A   Overcast
11:35 AM 27.1 °F 14.1 °F 10.2 °F 49% 30.04 in 10.0 mi West 18.4 mph - N/A   Overcast
11:55 AM 27.0 °F 13.5 °F 9.9 °F 49% 30.04 in 10.0 mi West 19.6 mph 23.0 mph N/A   Overcast
12:15 PM 26.2 °F 13.0 °F 9.9 °F 50% 30.03 in 10.0 mi West 18.4 mph 27.6 mph N/A   Overcast
12:35 PM 26.1 °F 12.7 °F 12.7 °F 57% 30.03 in 4.0 mi West 18.4 mph 27.6 mph N/A Snow Light Snow
12:55 PM 26.8 °F 15.4 °F 14.0 °F 59% 30.03 in 7.0 mi WNW 13.8 mph 23.0 mph N/A Snow Light Snow
1:15 PM 26.6 °F 15.2 °F 13.5 °F 58% 30.03 in 10.0 mi West 13.8 mph 24.2 mph N/A   Overcast
1:35 PM 25.2 °F 11.2 °F 12.6 °F 59% 30.03 in 3.0 mi West 19.6 mph 27.6 mph N/A Snow Light Snow
1:55 PM 24.1 °F 12.0 °F 14.9 °F 68% 30.03 in 2.0 mi WNW 13.8 mph 21.9 mph N/A Snow Light Snow
2:15 PM 24.6 °F 11.3 °F 13.8 °F 64% 30.04 in 4.0 mi West 17.3 mph 27.6 mph N/A Snow Light Snow
2:35 PM 24.8 °F 10.3 °F 10.9 °F 56% 30.04 in 10.0 mi West 20.7 mph 27.6 mph N/A   Overcast
2:55 PM 24.3 °F 10.8 °F 8.6 °F 51% 30.04 in 10.0 mi West 17.3 mph 23.0 mph N/A   Overcast
3:15 PM 23.7 °F 8.9 °F 9.3 °F 54% 30.05 in 4.0 mi West 20.7 mph 31.1 mph N/A Snow Light Snow
3:35 PM 23.0 °F 8.0 °F 12.4 °F 64% 30.06 in 5.0 mi West 20.7 mph 24.2 mph N/A Snow Light Snow
3:55 PM 22.5 °F 6.9 °F 9.5 °F 58% 30.07 in 10.0 mi West 21.9 mph 27.6 mph N/A   Overcast
4:15 PM 22.1 °F 7.2 °F 7.0 °F 52% 30.08 in 10.0 mi West 19.6 mph 27.6 mph N/A   Overcast
4:35 PM 21.7 °F 5.6 °F 7.2 °F 54% 30.09 in 4.0 mi West 23.0 mph 32.2 mph N/A Snow Light Snow
4:55 PM 20.7 °F 6.6 °F 9.7 °F 63% 30.08 in 10.0 mi West 16.1 mph 26.5 mph N/A   Mostly Cloudy
5:15 PM 20.5 °F 6.4 °F 8.8 °F 61% 30.09 in 7.0 mi West 16.1 mph 23.0 mph N/A Snow Light Snow
5:35 PM 19.9 °F 5.2 °F 6.3 °F 55% 30.10 in 10.0 mi West 17.3 mph 28.8 mph N/A   Overcast
5:55 PM 19.2 °F 3.8 °F 3.7 °F 51% 30.11 in 10.0 mi West 18.4 mph 25.3 mph N/A   Mostly Cloudy
6:15 PM 18.7 °F 4.6 °F 3.0 °F 51% 30.11 in 10.0 mi West 15.0 mph - N/A   Mostly Cloudy
6:35 PM 18.5 °F 5.5 °F 3.2 °F 51% 30.13 in 10.0 mi WNW 12.7 mph 18.4 mph N/A   Overcast
6:55 PM 18.0 °F 1.3 °F 3.4 °F 53% 30.13 in 10.0 mi West 20.7 mph 25.3 mph N/A   Mostly Cloudy
7:15 PM 17.2 °F 4.5 °F 3.4 °F 55% 30.14 in 10.0 mi West 11.5 mph - N/A   Scattered Clouds
7:55 PM 16.2 °F 1.3 °F 2.3 °F 54% 30.14 in 10.0 mi WNW 15.0 mph 18.4 mph N/A   Scattered Clouds
8:15 PM 15.8 °F 2.1 °F 1.6 °F 54% 30.14 in 10.0 mi WNW 12.7 mph 21.9 mph N/A   Scattered Clouds
8:35 PM 15.6 °F -0.9 °F 1.4 °F 54% 30.14 in 10.0 mi WNW 18.4 mph 21.9 mph N/A   Scattered Clouds
8:55 PM 14.9 °F -0.3 °F -0.9 °F 50% 30.15 in 10.0 mi WNW 15.0 mph 23.0 mph N/A   Clear
9:15 PM 14.4 °F 0.2 °F -1.5 °F 50% 30.16 in 10.0 mi WNW 12.7 mph - N/A   Clear
9:35 PM 14.0 °F -1.4 °F -1.8 °F 49% 30.17 in 10.0 mi West 15.0 mph - N/A   Scattered Clouds
9:55 PM 13.8 °F 0.2 °F -2.2 °F 49% 30.18 in 10.0 mi West 11.5 mph 20.7 mph N/A   Scattered Clouds
10:15 PM 13.6 °F -3.5 °F -1.7 °F 51% 30.18 in 10.0 mi West 18.4 mph 23.0 mph N/A   Scattered Clouds
10:35 PM 13.3 °F -3.4 °F -2.0 °F 51% 30.18 in 10.0 mi West 17.3 mph 23.0 mph N/A   Scattered Clouds
10:55 PM 13.5 °F 0.5 °F -2.2 °F 50% 30.19 in 10.0 mi West 10.4 mph 20.7 mph N/A   Mostly Cloudy
11:15 PM 13.1 °F -3.7 °F -2.4 °F 50% 30.19 in 10.0 mi West 17.3 mph - N/A   Overcast
11:35 PM 13.1 °F -3.1 °F -2.2 °F 51% 30.19 in 10.0 mi West 16.1 mph 25.3 mph N/A   Overcast
11:55 PM 13.1 °F -4.2 °F -2.0 °F 51% 30.19 in 10.0 mi West 18.4 mph 23.0 mph N/A   Mostly Cloudy